Wind_Speed
18 16 17 17 14 10 9 11 10 5 2 4 7 9 9 7 6 3 2 5 7 10 12 13 14 17 18 20 22 24 25 21 19 22 22 31 31 34 35 32 35 37 36 35 37
15 14 15 13 10 10 10 9 6 1 2 4 4 4 4 5 8 8 9 8 10 11 13 15 17 20 24 26 26 28 28 25 25 28 28 31 33 33 33 32 33 36 33 33 38
14 13 10 9 8 10 9 5 4 3 2 4 5 5 6 8 11 13 14 14 14 14 16 17 19 23 26 28 32 33 33 33 30 31 32 31 35 35 35 34 35 36 35 34 34
14 12 10 9 9 8 5 4 4 2 3 5 7 6 7 10 12 15 17 18 19 19 20 22 22 23 25 28 32 35 39 40 39 38 37 36 37 40 39 36 39 39 39 36 37
13 10 8 7 8 5 4 4 5 4 5 5 6 7 10 13 16 19 19 20 21 24 26 27 28 28 28 29 31 34 37 43 45 45 45 43 42 42 45 45 43 43 42 42 42
9 6 5 6 6 5 6 7 5 8 6 8 9 9 13 15 17 21 24 26 27 28 28 28 28 30 33 35 35 36 36 38 43 47 49 50 47 47 46 48 48 48 46 44 44
5 3 5 5 5 4 7 8 7 7 9 10 11 13 16 17 20 22 25 26 28 28 27 26 28 31 34 36 38 39 41 42 42 44 48 52 53 51 53 51 52 51 53 51 47
6 5 5 5 5 6 6 7 8 9 11 13 14 16 17 20 23 24 26 28 29 28 24 26 31 34 36 38 39 42 43 43 46 47 48 49 52 52 56 56 55 54 55 56 55
11 10 9 11 12 9 9 9 11 13 14 14 14 17 18 20 21 24 28 29 27 26 28 30 35 38 40 40 40 42 45 46 46 48 50 51 48 53 55 60 56 57 57 59 57
19 16 15 17 18 16 14 14 15 16 15 15 17 19 21 23 24 26 27 27 27 28 32 35 40 43 45 44 46 46 46 47 50 51 53 54 50 52 56 59 61 58 59 62 62
23 24 23 22 20 20 17 17 17 18 18 19 20 21 25 25 25 27 28 29 30 33 37 40 43 47 48 49 51 53 54 54 55 57 57 57 54 55 55 56 60 61 60 61 64
26 26 26 21 20 21 19 18 19 20 19 20 21 24 26 25 27 28 29 31 34 37 41 44 48 50 51 56 59 60 61 61 59 62 61 59 57 56 60 58 56 60 61 62 63
26 27 24 23 20 21 20 20 21 22 21 21 24 25 26 26 28 29 31 34 37 41 43 48 52 53 58 61 61 65 70 68 68 66 61 62 58 57 61 61 62 61 61 62 61
26 27 26 25 22 20 20 23 22 21 22 25 27 23 26 28 29 30 33 37 40 44 49 53 55 60 62 64 69 66 63 59 52 49 51 43 52 41 52 59 64 64 63 61 63
25 26 24 25 23 22 21 22 23 24 26 25 26 28 28 29 31 33 36 41 44 49 52 54 58 61 61 60 61 56 45 38 34 29 26 20 33 24 32 36 46 61 66 66 64
24 24 23 21 22 22 20 20 22 27 28 28 29 29 29 30 32 34 39 43 47 50 52 54 58 60 58 54 51 39 34 31 27 20 17 21 23 3 12 23 31 39 51 60 65
25 24 22 21 19 20 21 21 25 26 28 29 29 28 28 30 34 36 40 44 48 51 52 50 54 55 56 47 35 31 28 26 16 23 24 25 13 6 12 14 17 24 32 44 59
26 25 24 24 24 23 22 25 25 27 30 30 28 29 29 32 35 38 42 46 50 52 56 54 46 55 50 40 31 25 27 31 30 31 16 24 12 18 12 12 20 26 29 36 46
27 26 26 26 22 24 26 27 28 29 30 29 28 29 30 32 36 40 44 47 50 50 52 52 40 43 41 33 27 25 28 29 31 31 32 21 13 25 23 18 20 24 24 25 33
30 29 28 28 25 27 28 30 30 30 30 27 27 28 30 33 38 41 44 48 48 48 48 51 49 37 36 28 28 27 27 25 26 33 37 31 26 33 31 23 19 22 26 29 28
34 32 31 30 28 28 29 32 31 31 29 27 27 30 32 34 36 41 44 46 46 46 47 48 46 32 32 28 25 27 25 26 29 32 36 41 33 36 35 31 23 22 23 25 33
38 36 33 32 30 31 32 31 31 29 26 27 27 31 31 32 35 41 44 45 45 46 47 48 46 29 23 25 23 25 23 29 32 35 35 38 35 40 41 41 40 34 32 30 29
42 38 38 36 32 32 33 31 30 27 24 26 28 29 30 33 36 40 42 42 44 46 48 51 43 28 20 18 18 22 24 26 31 33 35 38 38 38 39 42 40 41 34 25 27
44 43 41 38 34 34 32 30 29 25 23 24 24 27 29 33 37 39 40 41 43 45 49 51 35 25 21 17 16 15 22 25 29 34 34 35 40 35 38 35 36 33 22 17 14
47 42 41 38 35 33 32 29 31 25 24 25 24 26 29 32 35 37 37 39 41 44 49 50 28 17 18 10 12 15 17 22 25 29 32 34 33 37 40 43 44 29 25 20 20
42 40 36 35 36 33 29 26 28 23 21 23 24 28 29 30 33 35 36 39 39 43 48 47 21 8 11 8 9 15 20 23 25 27 29 29 29 31 35 37 34 23 22 19 19
45 38 33 33 34 31 26 24 26 26 23 24 25 28 27 29 31 34 34 37 38 41 44 37 11 8 5 6 9 13 18 22 24 26 31 29 26 33 39 40 32 23 25 22 24
Wind_Direction
293 281 281 286 288 272 275 288 293 304 19 36 21 9 8 12 12 354 324 313 302 301 299 293 286 279 275 274 273 271 270 266 267 273 261 258 254 251 254 253 251 248 244 241 239
296 283 281 283 266 253 269 273 267 251 1 12 9 11 3 347 352 342 326 322 316 306 297 293 290 288 288 284 279 276 273 269 261 255 251 252 269 269 269 264 259 258 252 247 244
295 289 284 273 255 253 256 247 244 276 321 324 337 339 4 3 359 350 346 335 326 315 302 293 290 285 283 280 281 280 278 275 266 261 258 251 256 256 259 263 260 257 254 252 251
291 289 285 268 247 242 236 217 240 291 323 333 325 323 352 347 349 348 339 330 326 325 323 320 311 300 291 282 277 274 275 275 273 268 260 254 252 255 252 253 254 255 253 247 246
294 285 272 253 235 224 220 243 271 316 321 313 320 330 341 344 341 337 332 327 325 323 322 320 319 315 310 302 294 286 276 272 270 270 264 260 255 249 252 249 247 247 247 246 243
300 273 248 225 236 225 261 271 290 296 304 314 315 335 337 335 335 333 331 328 326 325 325 323 323 319 315 310 304 298 289 280 275 269 268 263 257 254 250 254 250 247 244 241 240
292 243 220 211 261 276 282 283 287 285 303 310 318 327 327 328 333 333 330 325 324 324 325 325 325 322 317 309 303 299 295 290 281 273 267 264 257 257 254 247 248 247 247 244 239
259 244 231 253 278 289 289 286 284 300 303 310 310 317 320 326 327 324 316 318 319 321 320 320 321 322 318 313 307 301 295 290 287 281 275 266 258 259 257 253 247 248 246 246 246
249 257 259 272 285 288 288 285 292 300 299 302 302 310 315 319 316 318 321 317 318 319 320 322 324 324 320 316 310 304 298 292 287 284 279 274 263 258 258 256 250 248 247 246 244
253 257 266 286 297 294 290 285 294 301 302 302 300 307 313 317 319 319 317 310 315 317 322 323 323 322 318 315 310 305 298 292 287 282 278 276 271 262 256 254 254 248 244 245 244
255 260 269 286 294 292 289 287 293 298 302 297 296 306 313 312 315 318 317 313 317 321 323 321 320 319 315 313 310 306 300 294 292 285 276 272 269 266 262 255 249 251 248 243 243
259 260 268 279 287 288 279 282 289 295 295 292 299 304 306 307 314 314 316 318 320 321 321 319 318 317 315 313 313 312 307 302 295 288 282 270 262 261 256 256 253 250 248 247 243
258 261 263 271 277 279 276 282 288 291 294 295 299 304 304 306 310 312 315 317 320 320 319 319 319 317 315 317 317 317 310 302 296 288 284 276 263 254 252 250 249 249 249 245 243
258 258 263 267 268 266 277 286 288 294 301 300 302 302 301 305 311 313 316 319 320 321 321 321 321 321 324 324 322 315 308 304 306 303 297 286 268 257 250 248 245 245 247 247 243
255 255 256 265 260 262 275 279 290 297 302 301 300 303 307 310 313 314 320 321 323 322 324 325 326 328 329 328 319 315 312 315 320 321 335 302 289 282 255 254 248 243 242 243 245
251 252 256 256 260 267 273 282 293 298 300 297 299 305 310 312 314 318 320 322 323 326 328 329 332 331 333 328 325 322 321 319 314 318 330 333 326 357 234 247 248 247 244 242 242
243 244 250 256 259 266 277 284 293 296 299 298 302 305 309 311 313 319 320 323 325 326 328 336 337 335 337 336 334 325 331 326 335 337 331 346 331 290 286 278 253 244 245 243 242
244 245 247 255 268 267 270 283 291 294 296 296 301 302 308 310 314 317 321 324 327 330 333 341 342 337 342 341 340 338 335 335 326 331 350 349 345 346 309 280 272 276 267 257 247
240 244 251 260 260 262 273 282 291 293 292 294 297 304 307 311 317 319 324 326 329 335 339 343 346 334 342 340 340 336 333 330 330 337 338 353 347 343 330 306 281 266 264 272 266
240 242 248 258 259 263 273 283 291 292 291 295 297 308 309 312 318 322 326 328 333 339 343 343 338 328 337 336 336 331 331 335 333 336 339 345 350 339 337 326 286 271 270 272 269
245 247 251 256 259 265 273 280 288 290 288 294 295 307 312 315 321 325 328 330 336 341 343 340 334 332 330 327 329 327 328 326 330 332 333 337 349 341 338 333 314 290 280 264 255
238 243 250 254 259 264 272 279 286 289 287 290 295 307 311 317 325 327 329 332 338 340 341 337 331 336 325 319 328 320 326 326 324 329 332 328 347 342 337 332 323 313 302 281 255
239 248 248 251 254 262 269 274 280 283 292 293 295 301 309 317 323 326 329 336 339 340 340 336 331 335 321 319 327 320 323 323 321 329 335 332 343 337 326 323 316 317 316 302 264
247 251 245 248 252 259 264 275 274 274 286 295 298 304 308 319 322 326 333 337 339 341 339 331 333 330 318 322 328 319 319 321 329 332 336 341 338 332 329 333 331 337 336 329 301
246 248 243 245 251 258 266 271 266 270 282 284 298 308 311 320 322 328 334 337 341 341 338 331 332 322 311 316 321 320 328 328 334 337 340 341 332 342 348 347 346 0 350 342 317
242 244 237 243 251 257 261 261 264 261 278 285 297 306 315 318 322 329 335 339 341 342 339 335 335 319 316 312 327 326 332 337 337 349 353 336 348 353 358 356 355 356 3 6 20
239 236 239 244 254 254 248 256 255 258 278 279 298 306 309 320 325 330 339 340 341 343 344 345 350 343 325 344 332 336 336 339 345 0 353 342 355 12 14 7 9 31 29 55 63
Height
5792 5793 5793 5793 5791 5790 5790 5790 5789 5787 5786 5785 5785 5784 5783 5782 5781 5780 5780 5779 5778 5777 5777 5777 5777 5776 5775 5774 5774 5773 5772 5774 5774 5773 5773 5768 5767 5768 5770 5773 5773 5773 5776 5780 5781
5790 5790 5789 5790 5789 5789 5789 5788 5787 5786 5785 5784 5784 5783 5781 5781 5780 5779 5779 5778 5777 5776 5775 5774 5773 5772 5771 5769 5768 5766 5767 5768 5767 5765 5766 5764 5763 5765 5765 5767 5768 5769 5769 5771 5773
5788 5788 5787 5787 5787 5787 5786 5787 5786 5785 5784 5784 5783 5782 5781 5780 5779 5778 5776 5776 5775 5773 5772 5771 5770 5769 5767 5765 5762 5760 5759 5759 5760 5758 5758 5759 5757 5757 5758 5760 5761 5761 5762 5764 5767
5786 5785 5785 5785 5785 5785 5786 5785 5785 5784 5783 5782 5782 5781 5779 5778 5779 5776 5774 5772 5771 5769 5767 5765 5764 5762 5761 5758 5756 5753 5749 5748 5749 5748 5748 5750 5750 5747 5749 5751 5751 5751 5752 5754 5758
5784 5783 5783 5784 5784 5784 5784 5784 5784 5782 5781 5781 5780 5779 5778 5776 5775 5773 5771 5769 5767 5765 5762 5759 5757 5754 5752 5750 5748 5745 5742 5739 5737 5736 5737 5739 5740 5739 5739 5739 5740 5741 5741 5744 5747
5782 5781 5782 5783 5783 5783 5783 5782 5781 5780 5780 5779 5778 5777 5775 5774 5771 5769 5767 5765 5762 5759 5756 5753 5750 5747 5745 5742 5739 5736 5733 5730 5726 5725 5725 5725 5729 5728 5733 5730 5730 5730 5731 5733 5736
5781 5781 5781 5781 5782 5781 5781 5780 5779 5778 5777 5776 5775 5773 5772 5771 5767 5765 5762 5760 5758 5755 5751 5748 5745 5742 5738 5735 5732 5728 5725 5720 5718 5714 5712 5711 5715 5716 5714 5716 5716 5718 5719 5721 5724
5782 5781 5781 5781 5781 5780 5779 5778 5777 5776 5775 5774 5772 5770 5769 5766 5763 5761 5760 5757 5753 5750 5747 5744 5741 5737 5733 5728 5723 5718 5714 5711 5705 5701 5698 5699 5702 5701 5698 5699 5703 5705 5706 5710 5713
5780 5780 5779 5780 5779 5778 5778 5777 5775 5773 5772 5770 5769 5768 5766 5763 5761 5757 5754 5751 5748 5745 5741 5737 5734 5729 5725 5720 5714 5708 5703 5698 5695 5688 5684 5682 5688 5686 5683 5681 5688 5691 5693 5695 5699
5777 5777 5777 5777 5776 5776 5775 5774 5772 5771 5769 5767 5766 5765 5762 5759 5755 5752 5750 5747 5743 5740 5735 5730 5725 5720 5715 5709 5703 5697 5692 5687 5680 5677 5670 5667 5670 5667 5666 5666 5668 5673 5677 5678 5683
5773 5774 5773 5773 5772 5772 5772 5772 5771 5769 5766 5764 5762 5759 5756 5754 5751 5747 5744 5740 5736 5732 5728 5723 5717 5711 5704 5699 5692 5684 5677 5671 5666 5657 5655 5652 5654 5649 5648 5649 5652 5653 5658 5663 5666
5768 5768 5769 5769 5768 5768 5767 5766 5766 5764 5762 5759 5757 5754 5752 5749 5746 5742 5739 5736 5731 5726 5720 5715 5708 5701 5693 5685 5678 5667 5658 5653 5648 5636 5632 5630 5635 5632 5627 5631 5635 5637 5640 5647 5654
5762 5763 5764 5764 5763 5763 5763 5762 5760 5759 5757 5755 5752 5750 5747 5745 5741 5738 5735 5729 5724 5718 5713 5706 5699 5690 5682 5672 5663 5652 5638 5629 5620 5613 5610 5604 5612 5610 5607 5612 5614 5618 5621 5629 5636
5756 5758 5759 5759 5760 5758 5757 5758 5756 5754 5753 5751 5748 5746 5743 5739 5737 5732 5728 5724 5717 5710 5702 5695 5687 5678 5666 5653 5643 5633 5622 5610 5602 5592 5588 5586 5584 5590 5589 5590 5595 5601 5606 5610 5617
5751 5752 5752 5755 5754 5753 5753 5752 5752 5750 5748 5746 5743 5740 5737 5735 5731 5726 5721 5715 5709 5701 5694 5686 5676 5665 5652 5641 5628 5619 5608 5602 5597 5590 5583 5577 5570 5576 5576 5577 5577 5581 5587 5592 5597
5745 5747 5748 5747 5749 5749 5748 5747 5747 5747 5743 5741 5737 5734 5732 5729 5725 5720 5715 5710 5702 5693 5682 5674 5664 5654 5644 5631 5618 5608 5604 5598 5592 5588 5584 5578 5572 5570 5569 5568 5567 5568 5570 5573 5578
5739 5741 5742 5743 5743 5744 5744 5743 5742 5740 5738 5736 5732 5729 5726 5723 5720 5715 5709 5703 5695 5688 5678 5665 5650 5642 5632 5624 5615 5606 5600 5594 5590 5586 5581 5576 5572 5569 5566 5565 5564 5561 5559 5558 5562
5734 5736 5736 5737 5738 5738 5738 5739 5736 5734 5732 5729 5727 5724 5721 5718 5714 5708 5702 5695 5687 5678 5668 5656 5646 5635 5625 5618 5612 5606 5600 5594 5586 5583 5578 5576 5571 5569 5564 5561 5559 5557 5555 5553 5551
5727 5730 5732 5732 5730 5732 5734 5732 5731 5728 5727 5724 5722 5719 5717 5713 5709 5703 5696 5688 5680 5670 5660 5649 5644 5631 5626 5619 5613 5606 5600 5594 5586 5582 5576 5572 5570 5565 5560 5556 5553 5549 5546 5545 5545
5721 5723 5724 5727 5725 5726 5727 5727 5725 5723 5721 5719 5717 5715 5711 5707 5703 5696 5689 5682 5673 5663 5653 5645 5637 5629 5623 5618 5612 5605 5599 5593 5589 5581 5572 5569 5565 5558 5553 5550 5546 5543 5541 5538 5536
5714 5716 5718 5719 5719 5721 5720 5721 5719 5718 5716 5715 5712 5709 5706 5703 5697 5691 5684 5677 5666 5657 5647 5638 5631 5629 5618 5615 5609 5603 5598 5593 5588 5583 5576 5565 5563 5556 5548 5541 5537 5534 5531 5529 5527
5704 5708 5710 5711 5714 5714 5715 5714 5715 5712 5711 5709 5707 5705 5701 5698 5692 5686 5679 5670 5660 5652 5643 5634 5624 5621 5617 5611 5607 5600 5597 5591 5585 5581 5577 5568 5562 5551 5543 5536 5528 5522 5518 5515 5514
5694 5699 5702 5703 5705 5707 5708 5708 5708 5707 5705 5703 5702 5700 5697 5692 5687 5681 5674 5666 5656 5647 5637 5628 5618 5614 5612 5609 5605 5599 5595 5591 5585 5580 5575 5564 5558 5550 5541 5533 5521 5510 5503 5498 5498
5686 5689 5693 5695 5698 5700 5701 5702 5702 5701 5700 5698 5697 5694 5692 5687 5682 5677 5668 5660 5651 5643 5633 5623 5615 5611 5608 5606 5602 5600 5595 5591 5585 5579 5572 5565 5552 5547 5539 5526 5515 5503 5495 5491 5489
5675 5679 5685 5686 5690 5693 5695 5697 5695 5696 5695 5694 5692 5689 5686 5682 5678 5672 5664 5656 5648 5639 5630 5618 5611 5608 5605 5604 5601 5599 5596 5591 5586 5580 5571 5562 5554 5545 5530 5516 5504 5498 5494 5489 5482
5665 5670 5676 5680 5681 5685 5687 5690 5689 5690 5690 5689 5687 5685 5681 5677 5674 5668 5661 5652 5646 5638 5627 5613 5606 5605 5604 5602 5600 5598 5595 5590 5585 5580 5572 5564 5558 5546 5534 5521 5508 5501 5494 5487 5480
5657 5663 5667 5672 5674 5678 5681 5682 5683 5684 5684 5683 5682 5680 5677 5673 5669 5664 5656 5649 5642 5635 5625 5612 5607 5606 5605 5602 5601 5599 5595 5590 5586 5579 5572 5565 5558 5549 5535 5521 5510 5504 5499 5494 5490